Home   Weather   Township of Fairfield   Past weeks
Flag for USA

Past Weather in Township of Fairfield, Michigan, USA — Yesterday and Last 2 Weeks

Now
87 °F

Passing clouds.


Feels Like: 87 °F
Forecast: 90 / 65 °F
Wind: 3 mph from North

Location: Capital City Airport

Current Time: Jul 5, 2020 at 1:02:28 pm

Latest Report: Jul 5, 2020 at 11:53 am


Visibility: 10 mi

Pressure: 30.01 "Hg

Humidity: 40%

Dew Point: 60 °F

Location of Township of FairfieldLocation

Past Weather in Township of Fairfield — Graph

°F

Township of Fairfield Temperature Yesterday

Maximum temperature yesterday: 89 °F (at 5:53 pm)
Minimum temperature yesterday: 68 °F (at 6:53 am)
Average temperature yesterday: 78 °F

High & Low Weather Summary for the Past Weeks

 TemperatureHumidityPressure
High94 °F (Jul 3, 4:53 pm)97% (Jun 23, 5:53 am)30.05 "Hg (Jun 23, 5:53 am)
Low57 °F (Jun 24, 5:53 am)32% (Jun 24, 5:53 pm)29.59 "Hg (Jun 23, 9:53 am)
Average74 °F65%29.89 "Hg
* Reported Jun 20 11:53 am — Jul 5 11:53 am, Township of Fairfield. Weather by CustomWeather, © 2020

Note: Actual official high and low records may vary slightly from our data, if they occured in-between our weather recording intervals... More about our weather records

Township of Fairfield Weather History for the Previous 24 Hours

Scroll right to see more
 ConditionsComfort  
Time TempWeatherWind HumidityBarometerVisibility
11:53 am
Sun, Jul 5
87 °FPassing clouds.3 mph40%30.01 "Hg10 mi
10:53 am85 °FSunny.6 mph45%30.01 "Hg10 mi
9:53 am83 °FSunny.6 mph51%30.01 "Hg10 mi
8:53 am77 °FSunny.No wind64%30.02 "Hg7 mi
7:53 am70 °FSunny.No wind81%30.00 "Hg7 mi
6:53 am64 °FFog.No wind90%30.00 "Hg4 mi
6:02 am63 °FFog.No wind90%30.02 "Hg3 mi
5:55 am64 °FFog.No wind90%30.02 "Hg2 mi
4:53 am66 °FClear.No wind81%30.00 "Hg4 mi
3:53 am66 °FClear.No wind81%30.00 "Hg3 mi
2:53 am67 °FClear.No wind81%30.00 "Hg4 mi
1:53 am68 °FClear.No wind78%29.99 "Hg5 mi
12:53 am70 °FClear.No wind73%29.99 "Hg8 mi
11:53 pm
Sat, Jul 4
73 °FClear.No wind64%29.99 "Hg10 mi
10:53 pm72 °FClear.3 mph68%29.99 "Hg10 mi
9:53 pm74 °FClear.No wind67%29.98 "Hg10 mi
8:53 pm81 °FSunny.3 mph53%29.98 "Hg10 mi
7:53 pm85 °FSunny.3 mph43%29.97 "Hg10 mi
6:53 pm87 °FSunny.6 mph39%29.98 "Hg10 mi
5:53 pm89 °FPassing clouds.6 mph38%30.00 "Hg10 mi
4:53 pm87 °FSunny.5 mph43%30.01 "Hg10 mi
3:53 pm87 °FSunny.8 mph43%30.02 "Hg10 mi
2:53 pm87 °FSunny.6 mph43%30.04 "Hg10 mi
1:53 pm85 °FSunny.8 mph48%30.04 "Hg10 mi
Weather by CustomWeather, © 2020

See weather overview